Location: Newark
(44.3681°N, 100.3364°W)
Time: 10:18:33
(UTC+00:00)

S-56A Canister/Altair - Pass Details

Date: 08 March 2020
Orbit: 634 x 2498 km, 38.9° (Epoch: 28 March)

Event Time Altitude Azimuth Distance (km) Brightness Sun altitude
Rises 15:06:13 0° 257° (WSW) 4,592 11.1 19.8°
Reaches altitude 10° 15:08:53 10° 254° (WSW) 3,832 10.7 20.2°
Maximum altitude 15:19:22 68° 175° (S) 2,204 10.4 21.8°
Drops below altitude 10° 15:33:48 10° 97° (E) 5,114 13.0 24.0°
Sets 15:37:58 0° 95° (E) 6,173 13.1 24.6°
